EN

Hourly Weather Whitley Bay

Today, 25 January, Monday

Time Temperature Precipitation Wind Pressure Humidity
00:00 -3°C° 0 mm 6 mps 749 mmHg 81%
01:00 -3°C° 0 mm 6 mps 749 mmHg 80%
02:00 -2°C° 0 mm 7 mps 749 mmHg 79%
03:00 -2°C° 0 mm 8 mps 749 mmHg 78%
04:00 -2°C° 0 mm 8 mps 749 mmHg 78%
05:00 -3°C° 0 mm 9 mps 749 mmHg 77%
06:00 -1°C° 0 mm 9 mps 749 mmHg 79%
07:00 -1°C° 0 mm 9 mps 749 mmHg 77%
08:00 -2°C° 0 mm 10 mps 749 mmHg 75%
09:00 -2°C° 0 mm 10 mps 750 mmHg 73%
10:00 0°C° 0 mm 10 mps 750 mmHg 71%
11:00 +1°C° 0 mm 10 mps 751 mmHg 69%
12:00 +2°C° 0 mm 9 mps 751 mmHg 68%
13:00 +2°C° 0 mm 9 mps 752 mmHg 69%
14:00 +1°C° 0 mm 8 mps 753 mmHg 71%
15:00 +2°C° 0 mm 7 mps 753 mmHg 73%
16:00 +2°C° 0 mm 7 mps 754 mmHg 76%
17:00 0°C° 0 mm 7 mps 755 mmHg 80%
18:00 -1°C° 0 mm 6 mps 755 mmHg 83%
19:00 -1°C° 0 mm 6 mps 756 mmHg 84%
20:00 -1°C° 0 mm 6 mps 756 mmHg 85%
21:00 -1°C° 0 mm 6 mps 757 mmHg 86%
22:00 -1°C° 0 mm 6 mps 757 mmHg 87%
23:00 0°C° 0 mm 5 mps 757 mmHg 88%

Tomorrow, 26 January, Tuesday

Time Temperature Precipitation Wind Pressure Humidity
00:00 -1°C° 0 mm 5 mps 757 mmHg 89%
01:00 -1°C° 0 mm 5 mps 757 mmHg 89%
02:00 0°C° 0 mm 5 mps 757 mmHg 89%
03:00 0°C° 0 mm 5 mps 758 mmHg 89%
04:00 0°C° 0 mm 5 mps 758 mmHg 89%
05:00 0°C° 0 mm 5 mps 758 mmHg 89%
06:00 0°C° 0 mm 5 mps 758 mmHg 89%
07:00 0°C° 0 mm 4 mps 758 mmHg 89%
08:00 0°C° 0 mm 4 mps 758 mmHg 89%
09:00 0°C° 0 mm 3 mps 759 mmHg 89%
10:00 +1°C° 0 mm 3 mps 759 mmHg 86%
11:00 +2°C° 0 mm 3 mps 759 mmHg 83%
12:00 +4°C° 0 mm 2 mps 759 mmHg 79%
13:00 +4°C° 0 mm 2 mps 759 mmHg 85%
14:00 +3°C° 0 mm 3 mps 758 mmHg 90%
15:00 +2°C° 0 mm 3 mps 758 mmHg 95%
16:00 +2°C° 0.6 mm 3 mps 758 mmHg 96%
17:00 +2°C° 0.6 mm 3 mps 758 mmHg 97%
18:00 +2°C° 0.6 mm 3 mps 758 mmHg 97%
19:00 +2°C° 0.3 mm 3 mps 757 mmHg 97%
20:00 +2°C° 0.3 mm 3 mps 757 mmHg 97%
21:00 +2°C° 0.3 mm 3 mps 757 mmHg 97%
22:00 +2°C° 0.1 mm 3 mps 757 mmHg 97%
23:00 +3°C° 0.1 mm 2 mps 757 mmHg 97%

Day after tomorrow, 27 January, Wednesday

Time Temperature Precipitation Wind Pressure Humidity
00:00 +2°C° 0.1 mm 2 mps 757 mmHg 97%
01:00 +4°C° 0 mm 1 mps 757 mmHg 96%
02:00 +4°C° 0 mm 1 mps 757 mmHg 96%
03:00 +4°C° 0 mm 1 mps 757 mmHg 95%
04:00 +4°C° 0 mm 1 mps 757 mmHg 95%
05:00 +3°C° 0 mm 0 mps 757 mmHg 94%
06:00 +2°C° 0 mm 0 mps 757 mmHg 94%
07:00 +4°C° 0 mm 1 mps 757 mmHg 94%
08:00 +4°C° 0 mm 1 mps 757 mmHg 94%
09:00 +4°C° 0 mm 1 mps 757 mmHg 94%
10:00 +5°C° 0 mm 1 mps 757 mmHg 92%
11:00 +5°C° 0 mm 1 mps 758 mmHg 91%
12:00 +5°C° 0 mm 2 mps 758 mmHg 89%
13:00 +5°C° 0 mm 2 mps 757 mmHg 90%
14:00 +5°C° 0 mm 2 mps 757 mmHg 91%
15:00 +4°C° 0 mm 3 mps 756 mmHg 92%
16:00 +4°C° 0.1 mm 3 mps 756 mmHg 93%
17:00 +3°C° 0.1 mm 3 mps 756 mmHg 95%
18:00 +3°C° 0.1 mm 4 mps 755 mmHg 96%
19:00 +3°C° 0.1 mm 4 mps 755 mmHg 97%
20:00 +3°C° 0.1 mm 4 mps 754 mmHg 97%
21:00 +2°C° 0.1 mm 5 mps 753 mmHg 98%
22:00 +3°C° 0.7 mm 5 mps 752 mmHg 98%
23:00 +3°C° 0.7 mm 5 mps 751 mmHg 98%

28 January, Thursday

Time Temperature Precipitation Wind Pressure Humidity
00:00 +3°C° 0.7 mm 5 mps 750 mmHg 99%
01:00 +4°C° 1.7 mm 4 mps 749 mmHg 99%
02:00 +4°C° 1.7 mm 3 mps 748 mmHg 99%
03:00 +4°C° 1.7 mm 3 mps 746 mmHg 98%
04:00 +4°C° 0.7 mm 3 mps 746 mmHg 98%
05:00 +5°C° 0.7 mm 4 mps 745 mmHg 97%
06:00 +5°C° 0.7 mm 4 mps 745 mmHg 96%
07:00 +6°C° 0 mm 5 mps 745 mmHg 93%
08:00 +7°C° 0 mm 6 mps 745 mmHg 91%
09:00 +6°C° 0 mm 7 mps 745 mmHg 88%
10:00 +7°C° 0 mm 8 mps 745 mmHg 85%
11:00 +7°C° 0 mm 8 mps 746 mmHg 82%
12:00 +7°C° 0 mm 9 mps 746 mmHg 79%
13:00 +7°C° 0 mm 9 mps 746 mmHg 78%
14:00 +7°C° 0 mm 9 mps 745 mmHg 78%
15:00 +7°C° 0 mm 9 mps 745 mmHg 77%
16:00 +7°C° 0 mm 8 mps 744 mmHg 81%
17:00 +8°C° 0 mm 7 mps 744 mmHg 84%
18:00 +8°C° 0 mm 6 mps 744 mmHg 88%
19:00 +7°C° 0 mm 5 mps 743 mmHg 89%
20:00 +7°C° 0 mm 4 mps 742 mmHg 91%
21:00 +7°C° 0 mm 4 mps 741 mmHg 92%
22:00 +7°C° 1.2 mm 4 mps 741 mmHg 93%
23:00 +7°C° 1.2 mm 5 mps 741 mmHg 93%

29 January, Friday

Time Temperature Precipitation Wind Pressure Humidity
00:00 +7°C° 1.2 mm 5 mps 741 mmHg 93%
01:00 +7°C° 1.1 mm 6 mps 741 mmHg 90%
02:00 +5°C° 1.1 mm 7 mps 742 mmHg 87%
03:00 +5°C° 1.1 mm 7 mps 742 mmHg 84%
04:00 +5°C° 0 mm 8 mps 743 mmHg 83%
05:00 +5°C° 0 mm 8 mps 743 mmHg 82%
06:00 +4°C° 0 mm 8 mps 743 mmHg 81%
07:00 +4°C° 0.1 mm 7 mps 743 mmHg 82%
08:00 +4°C° 0.1 mm 7 mps 744 mmHg 83%
09:00 +4°C° 0.1 mm 6 mps 744 mmHg 83%
10:00 +4°C° 1.2 mm 6 mps 744 mmHg 87%
11:00 +3°C° 1.2 mm 6 mps 745 mmHg 90%
12:00 +3°C° 1.2 mm 7 mps 745 mmHg 93%
13:00 +3°C° 0.7 mm 7 mps 746 mmHg 90%
14:00 +2°C° 0.7 mm 7 mps 746 mmHg 87%
15:00 +2°C° 0.7 mm 7 mps 746 mmHg 83%
16:00 +2°C° 0.2 mm 7 mps 747 mmHg 87%
17:00 +2°C° 0.2 mm 7 mps 748 mmHg 90%
18:00 0°C° 0.2 mm 8 mps 749 mmHg 94%
19:00 0°C° 0.1 mm 7 mps 749 mmHg 87%
20:00 +1°C° 0.1 mm 6 mps 750 mmHg 81%
21:00 +1°C° 0.1 mm 6 mps 751 mmHg 74%
22:00 0°C° 0 mm 5 mps 752 mmHg 76%
23:00 0°C° 0 mm 5 mps 753 mmHg 77%

30 January, Saturday

Time Temperature Precipitation Wind Pressure Humidity
00:00 -1°C° 0 mm 4 mps 754 mmHg 79%
01:00 -1°C° 0 mm 4 mps 754 mmHg 81%
02:00 -1°C° 0 mm 4 mps 755 mmHg 84%
03:00 -1°C° 0 mm 5 mps 756 mmHg 87%
04:00 -1°C° 0 mm 5 mps 756 mmHg 86%
05:00 -1°C° 0 mm 5 mps 757 mmHg 85%
06:00 -1°C° 0 mm 5 mps 757 mmHg 84%
07:00 -1°C° 0 mm 5 mps 758 mmHg 84%
08:00 -1°C° 0 mm 5 mps 759 mmHg 84%
09:00 -1°C° 0 mm 5 mps 759 mmHg 84%
10:00 0°C° 0 mm 4 mps 760 mmHg 80%
11:00 +1°C° 0 mm 4 mps 760 mmHg 76%
12:00 +2°C° 0 mm 3 mps 760 mmHg 72%
13:00 +3°C° 0 mm 3 mps 760 mmHg 72%
14:00 +3°C° 0 mm 3 mps 760 mmHg 71%
15:00 +4°C° 0 mm 2 mps 760 mmHg 71%
16:00 +2°C° 0 mm 3 mps 760 mmHg 74%
17:00 +1°C° 0 mm 3 mps 760 mmHg 76%
18:00 0°C° 0 mm 3 mps 760 mmHg 79%
19:00 0°C° 0 mm 3 mps 760 mmHg 79%
20:00 0°C° 0 mm 3 mps 760 mmHg 79%
21:00 -1°C° 0 mm 4 mps 759 mmHg 80%
22:00 -1°C° 0 mm 4 mps 759 mmHg 80%
23:00 -1°C° 0 mm 5 mps 758 mmHg 80%
Show more